User: anonymous   Login
Location: Gairloch Mountain Observatory
(46.1383°N, 60.9640°W)
Time: 08:09:02
(UTC-03:00)
Language:

CENTAUR R/B - Orbit

View from above orbital plane
View from above orbital plane
View from above satellite
View from above satellite

Ground track
Ground track

The orbit data is extracted from the following two-line orbital elements,

1 26906U 01040B   17134.90592292 0.00000020  00000-0  23677-4 0    06
2 26906  63.4620  58.6850 0354000 341.8869  18.1131 13.44010661    00
Epoch (UTC): 14 May 2017 21:44:31
Eccentricity: 0.0354000
inclination: 63.4620°
perigee height: 830 km
apogee height: 1359 km
right ascension of ascending node: 58.6850°
argument of perigee: 341.8869°
revolutions per day: 13.44010661
mean anomaly at epoch: 18.1131°
orbit number at epoch: 0

The dashed part of the orbit path shows where the satellite is in the earth's shadow,  

DLR